Página principal
METAR-TAF:

METAR-TAF

Aeroportos :

Brownwood, Texas, Estados Unidos

latitude: 31-48N, longitude: 098-57W, altura: 422 m

Observação actual do tempo

O boletim foi feito há 29 minutos, às 15:35 UTC
Vento 16 kt de norte
Temperatura 4°C
Humidade 75%
Pressão 1015 hPa
Visibilidade: 12.9 km
Encobertoa uma altura de 1500 ft

METAR: KBWD 171535Z AUTO 36016KT 8SM OVC015 04/00 A2997 RMK AO1

Hora: 10:04 (16:04 UTC)


TAF: em falta

Observações e previsões do tempo de mais de 4000 aeroportos (mensagens METAR e TAF).

As estações disponíveis são os pontos amarelos e vermelhos sobre o mapa.

Mova o rato sobre o mapa para ver o nome da estação.

Depois clique no ponto para visualizar as observações e previsões meteorológicas.

Para alterar o mapa : clique nos botões verdes com uma cruz preta para aumentar o zoom; no botão verde com uma pitada de zoom; ou nas setas verdes para mapas adjacentes.


METAR-TAF: